CAPE
731 1287 474 487 930 871 1860 1779 1462 2324 2018 1531 1273 1060 588 237 220 260 389 156 86 179 501 853 1143 1226 868 583 504 626 793 931 1268 1415 1346 1257 1136 1131 1238 1220 997 903 834
565 1900 1459 1831 1492 1392 1265 2135 1988 2042 2109 1569 1390 1139 779 423 330 310 487 259 252 331 331 454 613 803 1060 1123 695 500 445 484 475 514 868 1184 1235 1027 912 978 1113 1129 950
1288 1533 1875 1313 1788 2190 2189 2804 2058 2570 1891 1738 1657 827 669 642 505 259 287 651 588 477 188 144 94 144 357 568 621 705 741 759 766 614 477 844 1059 988 901 785 727 979 1066
1729 1723 1463 1403 1525 1701 2053 1441 2405 2511 1794 1739 1416 797 461 213 367 320 326 202 246 251 0 0 0 0 0 0 10 162 138 39 37 90 244 447 686 1001 1223 791 723 806 1005
1380 944 1303 2230 1932 1188 1523 1919 2680 2276 1995 2002 1364 512 303 163 252 455 404 408 178 89 15 0 0 0 0 0 0 0 0 0 8 21 35 65 209 317 459 761 665 534 498
1161 1643 1075 1637 1729 1566 2163 2413 2335 2273 2288 1961 1251 296 374 222 504 449 484 372 83 30 37 12 0 0 0 0 0 0 0 0 0 0 0 3 16 28 33 123 499 606 341
1467 1589 1360 1872 1844 1682 1749 2488 2154 2172 2008 1850 986 193 433 499 653 708 671 453 374 145 19 0 0 0 0 0 0 0 0 0 0 0 0 0 0 0 0 0 0 77 359
1284 1710 1768 1608 1596 2018 1751 2759 2707 2356 1937 1692 1133 440 151 343 653 1046 791 753 483 122 113 366 379 0 0 0 22 0 0 0 0 0 0 0 0 0 0 0 0 0 0
1837 2038 2203 2690 2526 2353 2171 2534 2890 2684 2401 2296 1112 531 271 94 1002 1092 1056 1077 716 478 542 578 714 377 1 9 1 0 0 0 0 0 0 0 0 0 0 0 0 0 0
2013 2209 2478 2612 2964 2967 2695 2697 3023 2917 2719 2118 1860 986 388 976 1160 1193 1191 1081 1141 820 798 585 624 265 47 26 58 12 0 0 0 0 0 0 0 0 0 2 0 0 0
2153 2514 2443 2746 2694 2823 2759 2229 2675 3063 2696 2304 1823 842 524 705 924 1204 1049 1050 1064 1197 1044 824 515 74 138 45 34 0 0 0 0 0 0 0 0 0 0 0 0 2 0
2287 2284 2371 2615 2447 2713 2684 2308 3005 3164 2916 2693 2194 1601 1202 1157 1444 1386 1319 1555 1399 1014 1017 835 464 196 69 175 7 0 0 0 0 0 0 0 0 0 0 0 0 0 0
1569 1991 2345 2519 2577 2527 2619 2861 3442 3505 3440 2774 2507 2331 1715 1463 1263 1443 1070 1533 1071 1266 482 373 434 95 106 85 0 0 0 0 0 0 0 0 0 0 0 0 0 0 0
1570 1387 2653 2729 2831 3179 3636 3094 3500 3861 3461 3073 2771 2630 2196 1858 1547 1489 1281 1099 973 726 487 464 413 68 47 1 0 0 0 0 0 0 0 0 0 0 0 0 0 0 0
2064 2225 3119 3164 3592 3667 3446 3562 3741 3964 3375 2375 1571 1797 2278 1996 1464 1204 1006 856 706 363 187 306 422 326 0 0 0 0 0 0 0 0 0 0 0 0 0 1 1 11 19
2128 1890 1854 2761 2732 3367 3543 3536 3472 3594 279 732 1563 1254 1684 1299 1285 1047 1157 702 640 265 232 343 331 63 0 0 0 0 0 0 0 0 0 0 0 0 2 7 6 5 9
2500 3395 2855 2265 3141 2903 3502 3677 3330 2769 10 1 1162 951 803 1466 1233 952 656 719 407 334 157 244 23 0 0 0 0 0 0 0 0 3 11 1 0 0 5 10 9 11 8
3244 3025 2873 3546 3158 3454 3805 3550 3014 887 17 82 351 327 1151 1198 1194 733 539 133 173 147 0 0 0 0 0 0 0 0 0 0 0 17 0 0 0 5 6 3 4 3 2
3539 3546 3801 3705 3880 3825 3491 3518 2663 713 38 40 177 1077 1213 1029 676 717 287 235 0 0 0 0 0 0 0 0 0 0 0 0 16 5 0 0 4 10 8 1 1 0 0
4038 4181 4115 4007 3974 3871 3739 2838 2014 909 487 390 560 1232 773 706 347 4 0 0 0 0 0 0 0 0 0 0 0 0 0 1 7 0 0 0 8 17 6 4 4 9 3
4230 4141 4086 4012 3840 3818 3467 2658 1607 748 610 600 1324 213 0 0 0 0 0 0 0 0 0 0 0 0 0 0 0 0 3 0 0 0 0 0 6 10 3 1 18 7 2
4236 4229 4125 3901 3710 3354 2966 2384 1554 1017 1067 1369 354 0 0 0 0 0 0 0 0 0 0 0 0 0 0 0 0 0 2 0 0 0 0 0 0 10 5 5 17 7 3
4151 4109 3864 3526 3268 2941 2345 1965 1800 1824 1752 933 328 1 0 0 0 0 0 0 0 0 0 0 0 0 0 0 0 0 0 0 0 1 1 3 0 2 4 4 13 8 7
4012 3940 3513 2828 3326 2035 1876 1891 1709 1832 1194 638 4 0 0 0 0 0 0 0 0 0 0 0 0 0 0 0 0 0 0 0 2 7 4 3 1 2 7 3 7 9 6
3858 3619 3187 2830 2404 1595 1598 1211 1818 983 78 0 0 0 0 0 0 0 0 0 0 0 0 0 0 0 0 0 1 0 0 0 0 0 0 3 2 1 3 5 3 5 5
3273 2938 2741 2383 1921 1589 851 1193 875 203 0 0 0 0 0 0 0 0 0 0 0 0 0 0 0 0 0 3 0 0 0 0 0 0 0 0 0 2 0 2 5 3 2
CIN
-16 -16 -24 -52 -44 -28 -9 -13 -14 -9 -10 -4 -2 -2 -20 -31 -36 -34 -70 -117 -131 -113 -87 -74 -57 -41 -36 -44 -42 -36 -29 -27 -16 -13 -13 -14 -15 -16 -12 -9 -10 -9 -14
-33 -16 -11 -8 -10 -10 -15 -8 -18 -17 -8 -9 -16 -11 -11 -2 -4 -33 -17 -61 -93 -91 -102 -90 -80 -67 -46 -26 -41 -49 -44 -35 -33 -34 -21 -10 -9 -11 -15 -16 -14 -11 -15
-13 -17 -17 -10 -9 -6 -5 -8 -17 -9 -6 -23 -18 -15 -6 -4 -6 -18 -13 -20 -55 -76 -131 -127 -135 -114 -92 -76 -65 -57 -57 -48 -39 -45 -41 -19 -11 -13 -11 -13 -15 -11 -19
-16 -17 -19 -10 -11 -9 -4 -5 -7 -18 -24 -22 -12 -13 -15 -79 -40 -30 -18 -38 -19 -66 0 0 0 0 0 0 -137 -99 -115 -162 -158 -134 -82 -60 -38 -20 -9 -14 -15 -12 -7
-22 -31 -29 -14 -17 -18 -15 -3 -14 -31 -23 -21 -15 -97 -115 -147 -111 -51 -41 -24 -75 -72 -33 0 0 0 0 0 0 0 0 0 -107 -137 -198 -148 -96 -76 -50 -24 -12 -14 -19
-22 -12 -25 -7 -14 -17 -7 -17 -24 -31 -23 -49 -53 -93 -96 -182 -142 -108 -62 -36 -101 -83 -61 -106 0 0 0 0 0 0 0 0 0 0 0 -60 -156 -196 -119 -75 -27 -12 -15
-8 -19 -35 -6 -12 -20 -21 -11 -15 -19 -64 -52 -81 -146 -51 -66 -46 -27 -30 -33 -29 -51 -91 -1 0 0 0 0 0 0 0 0 0 0 0 0 0 0 0 0 0 -55 -17
-25 -7 -23 -25 -38 -23 -24 -7 -18 -36 -46 -84 -88 -133 -119 -82 -86 -56 -35 -22 -34 -76 -48 -36 -27 0 0 0 -84 0 0 0 0 0 0 0 0 0 0 0 0 0 0
-19 -6 -2 -2 -16 -29 -31 -5 -12 -40 -29 -40 -128 -141 -140 -124 -51 -38 -22 -19 -36 -56 -46 -37 -38 -17 -32 -38 -12 0 0 0 0 0 0 0 0 0 0 0 0 0 0
-20 -15 -12 -13 -12 -19 -13 -13 -14 -28 -23 -29 -54 -84 -100 -31 -12 -3 -27 -17 -19 -31 -41 -60 -28 -39 -46 -17 -81 -89 0 0 0 0 0 0 0 0 0 0 0 0 0
-17 -11 -17 -6 -26 -33 -33 -53 -28 -30 -26 -30 -53 -154 -137 -87 -33 -7 -22 -22 -25 -17 -26 -38 -27 -47 -46 -30 -21 0 0 0 0 0 0 0 0 0 0 0 0 0 0
-11 -16 -20 -21 -47 -45 -44 -67 -39 -44 -64 -79 -77 -112 -105 -49 -8 -16 -5 -2 -1 -16 -19 -14 -50 -66 -134 -35 -43 0 0 0 0 0 0 0 0 0 0 0 0 0 0
-21 -19 -33 -43 -44 -52 -57 -31 -25 -27 -11 -21 -40 -31 -57 -68 -40 -16 -10 -7 -11 -10 -20 -17 -29 -61 -12 -43 0 0 0 0 0 0 0 0 0 0 0 0 0 0 0
-30 -57 -33 -41 -41 -25 -11 -27 -28 -7 -13 -7 -16 -7 -8 -26 -36 -12 -8 -5 -14 -39 -40 -7 -24 -84 -57 -8 0 0 0 0 0 0 0 0 0 0 0 0 0 0 0
-42 -29 -14 -30 -17 -13 -18 -5 -15 -3 -40 -28 -9 -15 -2 -12 -8 -10 -11 -18 -12 -10 -67 -15 -13 -58 0 0 0 0 0 0 0 0 0 0 0 0 0 0 0 -18 -3
-76 -84 -49 -8 -10 -16 -11 -7 -16 -14 -248 -217 -39 -42 -14 -26 -4 -14 -17 -26 -5 -21 -22 -6 -16 -24 0 0 0 0 0 0 0 0 -150 0 0 0 0 0 0 0 0
-62 -9 -55 -60 -14 -27 -15 -3 -8 -32 -100 -69 -58 -57 -77 -6 -3 -16 -37 -8 -5 -5 -17 -23 -12 0 0 0 0 0 0 0 0 -155 -181 -67 0 0 0 0 0 0 0
-60 -93 -96 -35 -63 -8 -2 -4 -8 -102 -83 -165 -284 -197 -31 -6 -6 -30 -15 -37 -23 -36 -3 0 0 0 0 0 0 0 0 0 0 -122 -14 0 0 -1 0 0 0 0 0
-96 -95 -62 -41 -5 -1 -3 -2 -3 -117 -319 -366 -327 -78 -3 -14 -27 -6 -20 -48 0 0 0 0 0 0 0 0 0 0 0 0 -139 -2 0 0 0 0 0 0 0 0 0
-57 -39 -24 -13 -4 -2 -2 -4 -36 -197 -276 -270 -165 -14 -52 -23 -55 -35 0 0 0 0 0 0 0 0 0 0 0 0 0 -1 -1 0 0 0 0 0 0 0 0 0 0
-73 -68 -57 -34 -13 -3 -5 -4 -82 -236 -216 -165 -26 -117 0 0 0 0 0 0 0 0 0 0 0 0 0 0 0 0 -1 0 0 0 0 0 0 0 0 0 0 0 0
-87 -79 -56 -32 -11 -16 -17 -35 -100 -155 -82 -40 -192 0 0 0 0 0 0 0 0 0 0 0 0 0 0 0 0 0 -1 0 0 0 0 0 0 0 0 0 0 0 0
-101 -77 -64 -54 -46 -57 -65 -72 -45 -11 -11 -93 -183 -77 0 0 0 0 0 0 0 0 0 0 0 0 0 0 0 0 0 0 0 0 0 0 0 -1 0 0 0 0 0
-95 -73 -85 -109 -44 -164 -131 -80 -61 -20 -59 -129 -8 0 0 0 0 0 0 0 0 0 0 0 0 0 0 0 0 0 0 0 0 -1 0 0 0 0 -1 0 0 0 0
-100 -89 -97 -132 -143 -227 -163 -197 -39 -138 -279 0 0 0 0 0 0 0 0 0 0 0 0 0 0 0 0 0 -23 0 0 0 0 0 0 0 0 0 -1 0 0 0 0
-134 -161 -130 -146 -169 -173 -288 -151 -177 -391 0 0 0 0 0 0 0 0 0 0 0 0 0 0 -3 0 0 -44 0 0 0 0 0 0 0 0 0 0 0 -3 0 0 0
Wind_Speed
18 16 21 21 21 15 22 22 18 17 14 19 23 27 27 27 26 26 17 18 20 20 19 19 18 16 15 14 14 15 17 17 16 17 16 16 15 14 14 14 13 11 7
18 14 13 15 13 21 14 15 19 18 11 21 27 28 28 27 26 27 24 18 20 21 20 21 21 20 18 16 16 18 18 19 19 20 20 20 20 19 16 15 15 13 11
19 16 13 16 18 17 16 13 16 15 23 26 22 16 25 27 26 25 25 22 22 22 22 22 22 21 20 20 21 21 20 21 23 25 25 25 24 22 22 20 20 18 15
18 16 14 14 17 14 10 14 18 22 16 16 17 14 15 6 5 23 22 24 21 18 20 22 23 23 22 21 21 22 23 23 24 25 27 27 27 27 27 26 23 22 19
18 17 14 18 15 11 8 16 20 21 15 11 14 12 18 17 12 13 21 16 18 22 19 20 22 23 20 21 20 21 22 23 23 24 27 29 29 30 31 31 28 24 22
17 15 15 10 14 9 8 16 14 13 9 16 18 12 15 17 18 16 17 20 21 22 21 22 22 19 17 16 19 20 21 24 24 25 27 30 31 30 30 31 30 28 24
14 13 14 11 10 11 8 9 8 6 10 18 17 21 17 15 18 19 12 18 17 17 21 20 16 21 18 16 15 16 19 22 24 27 29 33 34 32 31 31 30 30 30
13 12 12 12 12 8 8 6 7 7 9 16 22 21 18 18 26 21 21 18 19 17 20 24 15 18 19 21 15 15 18 21 22 26 31 32 31 31 30 30 30 29 29
12 12 12 11 12 10 8 5 5 5 7 11 15 20 24 22 23 24 24 26 17 19 22 23 21 18 15 18 18 16 18 21 24 30 34 33 31 30 30 29 29 29 28
11 11 13 13 14 11 8 4 3 4 2 5 7 6 11 11 16 19 24 26 24 19 21 20 20 21 17 16 16 20 19 23 28 33 34 31 31 31 31 31 31 31 29
11 13 13 13 13 10 7 5 1 2 4 6 8 8 8 10 14 17 19 20 26 23 16 17 15 17 19 17 20 19 22 25 31 33 32 31 30 30 31 33 34 34 33
11 13 14 13 11 8 4 2 3 4 8 7 10 9 10 13 15 18 19 21 27 27 23 24 17 18 20 21 25 24 29 32 33 33 30 29 30 31 33 33 34 36 37
12 13 13 11 9 4 3 1 4 2 4 8 9 9 11 10 13 17 20 20 26 26 28 26 22 22 23 26 27 31 34 34 33 28 28 30 31 33 34 37 38 39 39
15 17 8 9 7 4 2 2 7 14 13 14 10 10 10 10 13 19 21 21 25 26 28 31 23 25 28 30 32 32 33 33 27 28 29 35 36 37 39 42 45 46 45
18 16 7 9 6 2 3 5 7 9 16 7 8 8 11 12 15 16 19 17 20 25 27 27 27 29 33 34 31 32 31 30 28 30 30 34 38 41 44 48 49 49 46
16 17 17 7 3 1 3 3 5 2 2 11 10 9 11 12 15 18 17 17 19 22 24 26 27 29 33 30 30 31 30 31 27 28 30 34 42 46 46 44 41 40 39
17 12 12 10 3 3 4 5 6 9 26 23 12 10 12 13 16 19 17 18 21 22 26 26 27 29 27 31 34 33 33 32 33 30 36 42 48 43 37 33 34 35 35
16 14 11 6 5 4 4 6 6 7 9 5 13 10 12 14 20 18 18 23 27 27 28 28 25 26 28 36 35 36 35 32 32 33 41 45 42 42 39 36 35 34 34
14 12 8 4 5 6 6 8 9 7 7 11 10 11 14 18 18 17 24 26 27 28 28 26 26 27 31 37 35 33 33 30 32 36 41 47 41 41 39 37 36 35 35
11 7 4 4 5 7 7 9 11 9 7 13 8 17 21 20 22 25 27 27 29 29 29 28 28 30 32 30 28 28 28 33 32 34 47 36 32 27 36 32 34 37 36
6 4 4 5 6 7 9 12 10 9 9 9 16 19 21 23 25 26 26 27 29 29 30 28 30 30 34 34 33 28 29 31 34 39 50 25 12 16 26 22 27 29 26
3 3 4 6 9 10 13 11 11 10 11 14 17 18 20 23 24 25 26 27 29 30 30 29 30 32 33 35 33 32 33 32 29 37 35 13 26 21 27 21 29 30 26
1 3 5 9 13 14 13 12 12 12 14 16 17 16 20 23 22 23 24 25 27 27 28 26 29 30 31 32 36 40 37 34 30 34 30 25 26 11 28 27 34 29 27
3 5 9 11 14 14 13 13 14 15 17 18 20 20 21 23 24 25 26 26 26 25 25 24 26 28 30 31 35 39 37 33 35 37 32 26 10 9 18 26 28 28 26
6 8 10 13 14 13 13 14 15 17 18 20 21 21 21 22 24 26 26 25 25 25 21 19 20 23 26 29 35 39 46 45 42 44 26 19 10 10 12 17 25 27 23
8 11 13 13 13 13 14 16 16 16 17 19 21 22 22 23 25 26 25 25 24 23 22 21 22 20 22 26 35 39 42 47 44 43 24 27 16 10 16 9 23 18 17
Wind_Direction
149 147 118 130 115 141 87 76 87 81 77 47 21 0 332 340 351 342 35 35 33 34 31 23 18 24 22 19 10 360 350 346 345 342 339 335 334 332 330 326 320 317 310
148 165 163 145 155 97 122 101 69 71 80 44 14 3 336 337 341 339 350 23 22 24 27 21 10 7 11 11 4 355 348 342 338 334 330 326 322 323 327 327 322 319 313
154 161 168 140 121 107 105 111 76 78 43 29 34 40 5 339 326 347 345 8 8 8 10 14 13 7 5 1 356 354 350 340 331 323 320 317 317 316 314 316 314 315 313
169 176 164 135 89 115 132 85 61 46 60 53 51 58 57 103 186 352 2 2 11 31 18 12 12 8 2 359 354 351 348 346 339 328 318 317 314 312 307 307 308 308 309
148 166 180 67 74 134 176 54 47 46 56 62 60 59 61 66 73 58 18 31 19 9 14 13 10 6 4 0 359 353 351 349 344 337 323 316 314 311 307 303 302 305 305
147 140 171 161 52 121 108 55 64 57 68 55 41 47 53 58 51 46 26 15 14 9 12 10 7 14 16 14 7 2 358 349 346 340 331 319 315 313 310 306 303 300 301
134 138 166 153 98 123 162 85 78 88 59 38 42 40 44 53 45 28 35 19 12 17 10 9 22 16 13 10 10 11 3 355 348 341 334 321 312 312 310 307 305 302 297
148 134 148 172 185 164 184 141 85 73 43 39 25 20 38 42 17 28 18 20 16 10 8 2 12 5 7 5 10 8 5 355 353 345 335 329 320 315 313 310 308 305 301
149 154 158 161 182 189 187 141 95 57 43 36 37 23 16 22 18 20 17 11 10 5 4 358 356 359 12 7 6 12 2 354 345 338 333 329 324 318 315 313 310 307 303
152 159 178 182 193 193 189 117 91 34 48 25 42 63 34 19 17 14 11 3 7 6 2 1 2 359 353 355 3 357 354 349 342 336 334 331 324 318 313 310 307 304 303
153 164 173 178 189 188 191 199 220 25 31 22 25 17 3 6 8 3 0 8 2 1 360 1 1 3 358 2 352 1 356 347 340 337 334 329 325 322 316 310 303 299 296
156 171 179 175 180 179 176 188 16 6 4 7 10 1 358 5 2 1 356 359 2 4 5 358 2 358 2 359 1 354 349 343 339 335 334 332 328 321 315 313 308 301 293
174 181 183 176 175 156 167 129 16 244 358 3 1 354 355 353 359 359 356 357 1 4 4 13 10 11 11 3 357 348 344 343 341 341 334 331 326 321 315 309 305 300 296
198 218 156 162 167 126 81 48 7 0 7 359 343 355 356 352 353 357 358 1 3 6 5 3 15 10 2 355 349 349 350 347 348 341 337 328 325 319 313 307 300 294 290
209 213 170 166 159 115 30 13 4 21 6 331 323 339 4 352 355 358 359 8 11 7 5 4 4 1 355 353 356 354 353 353 349 346 344 337 329 322 314 306 298 293 285
201 208 212 186 180 13 352 332 344 13 330 30 5 5 360 354 2 3 10 17 17 11 7 7 5 3 359 1 0 1 359 357 5 357 351 344 332 322 317 310 302 295 288
202 198 206 214 231 258 295 315 309 335 338 3 12 15 3 1 6 13 21 20 15 15 9 9 11 8 10 8 3 3 4 1 354 354 348 341 322 318 293 282 282 285 286
202 209 219 234 251 292 301 301 302 339 346 327 0 14 14 14 17 24 26 20 19 17 13 12 16 18 18 8 7 4 4 6 2 360 349 325 316 326 312 303 293 287 274
201 209 221 252 311 330 310 308 316 311 6 3 26 26 17 19 29 32 22 20 17 15 18 20 21 22 19 10 12 12 12 11 7 4 356 337 345 337 327 311 299 288 279
199 209 237 302 324 332 328 332 348 1 4 13 41 18 25 33 30 25 21 20 17 18 22 24 25 23 22 22 23 21 17 15 14 13 353 7 10 353 327 316 304 290 262
203 230 287 316 338 348 350 356 17 40 44 47 31 36 36 32 26 24 24 23 23 24 25 29 26 26 23 23 23 22 19 18 21 17 5 26 13 351 330 321 324 321 306
215 291 331 357 4 6 13 27 40 48 57 44 41 45 38 31 30 31 31 31 27 28 30 32 30 26 27 27 27 23 22 21 22 23 20 23 329 47 335 328 336 342 343
301 13 22 17 13 19 33 54 60 48 48 51 50 51 38 32 34 34 33 33 32 35 35 40 35 33 31 30 27 26 27 29 30 32 30 42 334 22 339 339 349 350 352
52 41 29 20 21 27 46 53 51 50 53 49 42 37 34 30 30 29 29 30 31 35 39 45 42 39 38 36 33 29 33 36 38 35 36 48 351 54 340 349 350 355 355
56 39 31 29 28 44 57 61 58 55 49 41 35 35 35 34 30 25 29 31 33 37 48 52 49 48 42 41 37 35 32 33 38 36 35 54 11 60 77 351 353 354 356
49 35 33 34 44 48 69 74 63 59 49 42 37 36 38 34 30 28 31 35 42 42 44 45 43 49 48 45 36 37 36 36 41 41 32 56 26 39 80 71 354 4 5